,,Stat5,,Stat1,,Stat2,,Stat3,,Stat4,,Wind1,,Wind1,
time,status,PA1M_AVG,status,PR1M_SUM,status,RH1M_AVG,status,SR1M_AVG,status,TA1M_AVG,status,W1dAve1m,status,W1sAve1m,
2000-07-30, 00:00:00,VALID,917.519,VALID,0,VALID,93.3129,VALID,0,VALID,19.9855,VALID,177,VALID,0,
2000-07-30, 00:01:00,VALID,917.523,VALID,0,VALID,93.4439,VALID,0.0169808,VALID,19.9952,VALID,177,VALID,0,
2000-07-30, 00:02:00,VALID,917.521,VALID,0,VALID,93.6282,VALID,0,VALID,20.0009,VALID,175,VALID,0,
2000-07-30, 00:03:00,VALID,917.515,VALID,0,VALID,93.7058,VALID,0,VALID,20.0143,VALID,175,VALID,0,
2000-07-30, 00:04:00,VALID,917.528,VALID,0,VALID,93.5609,VALID,0.0169808,VALID,20.0375,VALID,175,VALID,0,
2000-07-30, 00:05:00,VALID,917.515,VALID,0,VALID,92.7966,VALID,0,VALID,20.0332,VALID,175,VALID,0,
2000-07-30, 00:06:00,VALID,917.517,VALID,0,VALID,91.7666,VALID,0.0169808,VALID,20.0504,VALID,175,VALID,0,
2000-07-30, 00:07:00,VALID,917.526,VALID,0,VALID,91.6967,VALID,0,VALID,20.0563,VALID,175,VALID,0,
2000-07-30, 00:08:00,VALID,917.518,VALID,0,VALID,91.6433,VALID,0,VALID,20.0717,VALID,175,VALID,0,
2000-07-30, 00:09:00,VALID,917.515,VALID,0,VALID,91.2681,VALID,0.0339617,VALID,20.0949,VALID,175,VALID,0,
2000-07-30, 00:10:00,VALID,917.498,VALID,0,VALID,91.4665,VALID,0.0509425,VALID,20.1247,VALID,175,VALID,0,
2000-07-30, 00:11:00,VALID,917.489,VALID,0,VALID,91.8378,VALID,0.0339617,VALID,20.1078,VALID,174,VALID,0,
2000-07-30, 00:12:00,VALID,917.47,VALID,0,VALID,91.5148,VALID,0.0509425,VALID,20.0683,VALID,173,VALID,0,
2000-07-30, 00:13:00,VALID,917.462,VALID,0,VALID,91.2211,VALID,0.0509425,VALID,20.0402,VALID,169,VALID,0,
2000-07-30, 00:14:00,VALID,917.429,VALID,0,VALID,91.5288,VALID,0.0339617,VALID,20.0039,VALID,145,VALID,0,
2000-07-30, 00:15:00,VALID,917.404,VALID,0,VALID,91.4513,VALID,0.0339617,VALID,19.995,VALID,145,VALID,0,
2000-07-30, 00:16:00,VALID,917.388,VALID,0,VALID,91.4525,VALID,0.0169808,VALID,19.9723,VALID,145,VALID,0,
2000-07-30, 00:17:00,VALID,917.383,VALID,0,VALID,91.6992,VALID,0.0169808,VALID,19.946,VALID,146,VALID,0,
2000-07-30, 00:18:00,VALID,917.399,VALID,0,VALID,92.2206,VALID,0,VALID,19.9174,VALID,193,VALID,0.275441,
2000-07-30, 00:19:00,VALID,917.409,VALID,0,VALID,92.4177,VALID,0.0169808,VALID,19.8724,VALID,214,VALID,0.453742,
2000-07-30, 00:20:00,VALID,917.396,VALID,0,VALID,92.5525,VALID,0,VALID,19.8173,VALID,214,VALID,0.652549,
2000-07-30, 00:21:00,VALID,917.378,VALID,0,VALID,92.6669,VALID,0.0339617,VALID,19.7715,VALID,208,VALID,0.560268,
2000-07-30, 00:22:00,VALID,917.362,VALID,0,VALID,92.8424,VALID,0.0169808,VALID,19.7295,VALID,192,VALID,0.531851,
2000-07-30, 00:23:00,VALID,917.336,VALID,0,VALID,93.3854,VALID,0.0339617,VALID,19.6848,VALID,160,VALID,0.670541,
2000-07-30, 00:24:00,VALID,917.287,VALID,0,VALID,93.5303,VALID,0.0169808,VALID,19.5911,VALID,124,VALID,0.718359,
2000-07-30, 00:25:00,VALID,917.225,VALID,0,VALID,93.6766,VALID,0.0169808,VALID,19.4813,VALID,113,VALID,0.976128,
2000-07-30, 00:26:00,VALID,917.191,VALID,0,VALID,93.9067,VALID,0,VALID,19.4045,VALID,121,VALID,0.983507,
2000-07-30, 00:27:00,VALID,917.16,VALID,0,VALID,94.0835,VALID,0,VALID,19.3389,VALID,127,VALID,0.831027,
2000-07-30, 00:28:00,VALID,917.119,VALID,0,VALID,93.805,VALID,0.0169808,VALID,19.3198,VALID,143,VALID,0.988809,
2000-07-30, 00:29:00,VALID,917.091,VALID,0,VALID,93.5977,VALID,0.0679233,VALID,19.323,VALID,146,VALID,1.05807,
2000-07-30, 00:30:00,VALID,917.082,VALID,0,VALID,93.2875,VALID,0.0339617,VALID,19.3493,VALID,160,VALID,1.01422,
2000-07-30, 00:31:00,VALID,917.074,VALID,0,VALID,93.1972,VALID,0,VALID,19.3389,VALID,168,VALID,0.936719,
2000-07-30, 00:32:00,VALID,917.053,VALID,0,VALID,93.3523,VALID,0,VALID,19.3262,VALID,182,VALID,0.841912,
2000-07-30, 00:33:00,VALID,917.044,VALID,0,VALID,93.7618,VALID,0.0169808,VALID,19.3041,VALID,202,VALID,0.888421,
2000-07-30, 00:34:00,VALID,917.032,VALID,0,VALID,94.3492,VALID,0.0339617,VALID,19.2358,VALID,209,VALID,0.76222,
2000-07-30, 00:35:00,VALID,917.018,VALID,0,VALID,95.1898,VALID,0.0169808,VALID,19.2201,VALID,211,VALID,0.96254,
2000-07-30, 00:36:00,VALID,916.992,VALID,0,VALID,95.72,VALID,0,VALID,19.1722,VALID,212,VALID,0.97389,
2000-07-30, 00:37:00,VALID,916.975,VALID,0,VALID,96.1587,VALID,0,VALID,19.1461,VALID,210,VALID,0.964738,
2000-07-30, 00:38:00,VALID,916.95,VALID,0,VALID,96.2172,VALID,0,VALID,19.1299,VALID,214,VALID,0.718967,
2000-07-30, 00:39:00,VALID,916.92,VALID,0,VALID,96.1091,VALID,0.0169808,VALID,19.1128,VALID,206,VALID,0.576322,
2000-07-30, 00:40:00,VALID,916.904,VALID,0,VALID,95.9845,VALID,0,VALID,19.1232,VALID,193,VALID,0.751367,
2000-07-30, 00:41:00,VALID,916.873,VALID,0,VALID,95.9146,VALID,0,VALID,19.1366,VALID,187,VALID,0.66246,
2000-07-30, 00:42:00,VALID,916.843,VALID,0,VALID,95.7823,VALID,0.0169808,VALID,19.1135,VALID,187,VALID,0.379808,
2000-07-30, 00:43:00,VALID,916.829,VALID,0,VALID,95.7429,VALID,0,VALID,19.0912,VALID,182,VALID,0.419054,
2000-07-30, 00:44:00,VALID,916.794,VALID,0,VALID,96.0303,VALID,0,VALID,19.0785,VALID,178,VALID,0.395148,
2000-07-30, 00:45:00,VALID,916.764,VALID,0,VALID,95.9489,VALID,0.0169808,VALID,19.0524,VALID,171,VALID,0.534951,
2000-07-30, 00:46:00,VALID,916.745,VALID,0,VALID,96.113,VALID,0,VALID,19.0298,VALID,170,VALID,0.590461,
2000-07-30, 00:47:00,VALID,916.723,VALID,0,VALID,96.3673,VALID,0,VALID,18.9977,VALID,170,VALID,0.57897,
2000-07-30, 00:48:00,VALID,916.71,VALID,0,VALID,96.7132,VALID,0.0169808,VALID,18.9818,VALID,176,VALID,0.699113,
2000-07-30, 00:49:00,VALID,916.694,VALID,0,VALID,96.9077,VALID,0,VALID,18.9629,VALID,203,VALID,0.736607,
2000-07-30, 00:50:00,VALID,916.692,VALID,0,VALID,97.0476,VALID,0,VALID,18.9301,VALID,210,VALID,0.8023,
2000-07-30, 00:51:00,VALID,916.673,VALID,0,VALID,97.1748,VALID,0,VALID,18.9175,VALID,211,VALID,0.915865,
2000-07-30, 00:52:00,VALID,916.666,VALID,0,VALID,97.3401,VALID,0,VALID,18.9043,VALID,208,VALID,0.870888,
2000-07-30, 00:53:00,VALID,916.658,VALID,0,VALID,97.4265,VALID,0.0169808,VALID,18.9112,VALID,214,VALID,0.841694,
2000-07-30, 00:54:00,VALID,916.638,VALID,0,VALID,97.3261,VALID,0,VALID,18.8912,VALID,206,VALID,0.821429,
2000-07-30, 00:55:00,VALID,916.628,VALID,0,VALID,97.2053,VALID,0,VALID,18.8782,VALID,211,VALID,0.964343,
2000-07-30, 00:56:00,VALID,916.625,VALID,0,VALID,97.2015,VALID,0.0339617,VALID,18.8884,VALID,217,VALID,1.02877,
2000-07-30, 00:57:00,VALID,916.617,VALID,0,VALID,97.2193,VALID,0.0339617,VALID,18.9075,VALID,219,VALID,1.09063,
2000-07-30, 00:58:00,VALID,916.607,VALID,0,VALID,97.2129,VALID,0.0509425,VALID,18.9239,VALID,217,VALID,0.870009,
2000-07-30, 00:59:00,VALID,916.591,VALID,0,VALID,97.204,VALID,0,VALID,18.9239,VALID,221,VALID,0.797092,
2000-07-30, 01:00:00,VALID,916.58,VALID,0,VALID,97.1658,VALID,0.0339617,VALID,18.8981,VALID,212,VALID,0.677232,
2000-07-30, 01:01:00,VALID,916.562,VALID,0,VALID,97.3553,VALID,0,VALID,18.8882,VALID,211,VALID,0.988281,
2000-07-30, 01:02:00,VALID,916.534,VALID,0,VALID,97.4774,VALID,0,VALID,18.8819,VALID,205,VALID,0.787796,
2000-07-30, 01:03:00,VALID,916.506,VALID,0,VALID,97.6338,VALID,0,VALID,18.8859,VALID,211,VALID,0.613181,
2000-07-30, 01:04:00,VALID,916.49,VALID,0,VALID,97.7279,VALID,0,VALID,18.8755,VALID,193,VALID,0.730859,
2000-07-30, 01:05:00,VALID,916.479,VALID,0,VALID,97.8207,VALID,0,VALID,18.8725,VALID,184,VALID,1.00161,
2000-07-30, 01:06:00,VALID,916.465,VALID,0,VALID,97.925,VALID,0,VALID,18.8757,VALID,188,VALID,1.08514,
2000-07-30, 01:07:00,VALID,916.461,VALID,0,VALID,97.8983,VALID,0,VALID,18.8688,VALID,188,VALID,0.954928,
2000-07-30, 01:08:00,VALID,916.455,VALID,0,VALID,97.9364,VALID,-0.101885,VALID,18.8841,VALID,182,VALID,0.973758,
2000-07-30, 01:09:00,VALID,916.431,VALID,0,VALID,97.7584,VALID,-0.101885,VALID,18.8707,VALID,181,VALID,0.797697,
2000-07-30, 01:10:00,VALID,916.419,VALID,0,VALID,97.5283,VALID,-0.118866,VALID,18.8582,VALID,181,VALID,0.870566,
2000-07-30, 01:11:00,VALID,916.411,VALID,0,VALID,97.2536,VALID,-0.118866,VALID,18.8481,VALID,172,VALID,0.877604,
2000-07-30, 01:12:00,VALID,916.403,VALID,0,VALID,97.0667,VALID,-0.0339617,VALID,18.8603,VALID,173,VALID,0.942508,
2000-07-30, 01:13:00,VALID,916.397,VALID,0,VALID,96.792,VALID,0.0169808,VALID,18.8822,VALID,177,VALID,0.945313,
2000-07-30, 01:14:00,VALID,916.387,VALID,0,VALID,96.5262,VALID,0,VALID,18.905,VALID,191,VALID,0.705529,
2000-07-30, 01:15:00,VALID,916.383,VALID,0,VALID,96.319,VALID,0,VALID,18.9212,VALID,203,VALID,0.542468,
2000-07-30, 01:16:00,VALID,916.385,VALID,0,VALID,96.146,VALID,-0.0169808,VALID,18.9311,VALID,205,VALID,0.252821,
2000-07-30, 01:17:00,VALID,916.392,VALID,0,VALID,96.0252,VALID,0,VALID,18.9309,VALID,206,VALID,0,
2000-07-30, 01:18:00,VALID,916.408,VALID,0,VALID,96.0125,VALID,-0.0339617,VALID,18.9246,VALID,204,VALID,0,
2000-07-30, 01:19:00,VALID,916.417,VALID,0,VALID,96.1155,VALID,0,VALID,18.9053,VALID,216,VALID,0,
2000-07-30, 01:20:00,VALID,916.442,VALID,0,VALID,96.0367,VALID,-0.0509425,VALID,18.8891,VALID,226,VALID,0,
2000-07-30, 01:21:00,VALID,916.434,VALID,0,VALID,96.057,VALID,0,VALID,18.8695,VALID,210,VALID,0,
2000-07-30, 01:22:00,VALID,916.447,VALID,0,VALID,96.2312,VALID,0,VALID,18.8469,VALID,208,VALID,0,
2000-07-30, 01:23:00,VALID,916.436,VALID,0,VALID,96.408,VALID,-0.0339617,VALID,18.8372,VALID,213,VALID,0.531901,
2000-07-30, 01:24:00,VALID,916.412,VALID,0,VALID,96.5631,VALID,0,VALID,18.827,VALID,210,VALID,0.783654,
2000-07-30, 01:25:00,VALID,916.386,VALID,0,VALID,96.6292,VALID,-0.0169808,VALID,18.8215,VALID,219,VALID,0.621299,
2000-07-30, 01:26:00,VALID,916.371,VALID,0,VALID,96.7691,VALID,0,VALID,18.8143,VALID,216,VALID,0.692845,
2000-07-30, 01:27:00,VALID,916.353,VALID,0,VALID,97.0044,VALID,-0.0509425,VALID,18.8116,VALID,214,VALID,0.829018,
2000-07-30, 01:28:00,VALID,916.348,VALID,0,VALID,97.3693,VALID,-0.0849042,VALID,18.8021,VALID,217,VALID,0.90625,
2000-07-30, 01:29:00,VALID,916.329,VALID,0,VALID,97.5333,VALID,-0.0509425,VALID,18.7798,VALID,214,VALID,0.620999,
2000-07-30, 01:30:00,VALID,916.312,VALID,0,VALID,97.6109,VALID,-0.0509425,VALID,18.7472,VALID,212,VALID,0.447656,
2000-07-30, 01:31:00,VALID,916.288,VALID,0,VALID,97.6898,VALID,-0.0679233,VALID,18.7209,VALID,218,VALID,0.353733,
2000-07-30, 01:32:00,VALID,916.287,VALID,0,VALID,97.7571,VALID,-0.101885,VALID,18.6963,VALID,218,VALID,0.347439,
2000-07-30, 01:33:00,VALID,916.299,VALID,0,VALID,97.8017,VALID,-0.101885,VALID,18.6801,VALID,218,VALID,0.327679,
2000-07-30, 01:34:00,VALID,916.314,VALID,0,VALID,97.719,VALID,-0.0509425,VALID,18.6409,VALID,219,VALID,0.510691,
2000-07-30, 01:35:00,VALID,916.331,VALID,0,VALID,97.78,VALID,-0.0509425,VALID,18.6051,VALID,216,VALID,0.539696,
2000-07-30, 01:36:00,VALID,916.34,VALID,0,VALID,97.9797,VALID,-0.0679233,VALID,18.618,VALID,215,VALID,0.551683,
2000-07-30, 01:37:00,VALID,916.334,VALID,0,VALID,98.0433,VALID,-0.0679233,VALID,18.6081,VALID,199,VALID,0.257617,
2000-07-30, 01:38:00,VALID,916.344,VALID,0,VALID,98.1424,VALID,-0.0679233,VALID,18.582,VALID,181,VALID,0,
2000-07-30, 01:39:00,VALID,916.348,VALID,0,VALID,98.3001,VALID,-0.0679233,VALID,18.5954,VALID,181,VALID,0,
2000-07-30, 01:40:00,VALID,916.374,VALID,0,VALID,98.3662,VALID,-0.101885,VALID,18.622,VALID,185,VALID,0.598558,
2000-07-30, 01:41:00,VALID,916.392,VALID,0,VALID,98.4324,VALID,-0.0849042,VALID,18.6215,VALID,194,VALID,1.12099,
2000-07-30, 01:42:00,VALID,916.417,VALID,0,VALID,98.3561,VALID,-0.0169808,VALID,18.6275,VALID,201,VALID,1.03269,
2000-07-30, 01:43:00,VALID,916.449,VALID,0,VALID,98.2264,VALID,0.0339617,VALID,18.6233,VALID,203,VALID,0.947635,
2000-07-30, 01:44:00,VALID,916.486,VALID,0,VALID,98.0471,VALID,0.0169808,VALID,18.6399,VALID,197,VALID,1.16254,
2000-07-30, 01:45:00,VALID,916.483,VALID,0,VALID,97.6783,VALID,0.0509425,VALID,18.6489,VALID,189,VALID,0.83153,
2000-07-30, 01:46:00,VALID,916.474,VALID,0,VALID,97.3261,VALID,0.0509425,VALID,18.6455,VALID,213,VALID,0.620508,
2000-07-30, 01:47:00,VALID,916.476,VALID,0,VALID,97.1989,VALID,0.0509425,VALID,18.6854,VALID,214,VALID,1.04107,
2000-07-30, 01:48:00,VALID,916.468,VALID,0,VALID,96.9446,VALID,0.0509425,VALID,18.7013,VALID,200,VALID,0.694712,
2000-07-30, 01:49:00,VALID,916.473,VALID,0,VALID,96.6686,VALID,0.0339617,VALID,18.7041,VALID,203,VALID,0.559245,
2000-07-30, 01:50:00,VALID,916.456,VALID,0,VALID,96.6915,VALID,0,VALID,18.708,VALID,196,VALID,0.680921,
2000-07-30, 01:51:00,VALID,916.437,VALID,0,VALID,96.9942,VALID,0.0169808,VALID,18.7105,VALID,200,VALID,0.903988,
2000-07-30, 01:52:00,VALID,916.418,VALID,0,VALID,97.1722,VALID,0.0169808,VALID,18.7038,VALID,197,VALID,0.637541,
2000-07-30, 01:53:00,VALID,916.404,VALID,0,VALID,97.3579,VALID,0.0169808,VALID,18.7078,VALID,210,VALID,0.562711,
2000-07-30, 01:54:00,VALID,916.392,VALID,0,VALID,97.5842,VALID,0.0339617,VALID,18.7108,VALID,192,VALID,0.555954,
2000-07-30, 01:55:00,VALID,916.365,VALID,0,VALID,97.5308,VALID,0.0169808,VALID,18.6683,VALID,170,VALID,0.0495536,
2000-07-30, 01:56:00,VALID,916.355,VALID,0,VALID,97.3439,VALID,0.0339617,VALID,18.63,VALID,167,VALID,0,
2000-07-30, 01:57:00,VALID,916.358,VALID,0,VALID,97.2523,VALID,0.0339617,VALID,18.6265,VALID,160,VALID,0,
2000-07-30, 01:58:00,VALID,916.373,VALID,0,VALID,97.382,VALID,0.0509425,VALID,18.636,VALID,154,VALID,0,
2000-07-30, 01:59:00,VALID,916.391,VALID,0,VALID,97.5728,VALID,0.0339617,VALID,18.6655,VALID,163,VALID,0,
2000-07-30, 02:00:00,VALID,916.419,VALID,0,VALID,97.691,VALID,0.0169808,VALID,18.6653,VALID,172,VALID,0,
2000-07-30, 02:01:00,VALID,916.436,VALID,0,VALID,97.8271,VALID,0,VALID,18.6692,VALID,178,VALID,0,
2000-07-30, 02:02:00,VALID,916.442,VALID,0,VALID,97.9631,VALID,0.0339617,VALID,18.6727,VALID,183,VALID,0.26734,
2000-07-30, 02:03:00,VALID,916.439,VALID,0,VALID,98.0776,VALID,0.0169808,VALID,18.6854,VALID,195,VALID,0.573242,
2000-07-30, 02:04:00,VALID,916.42,VALID,0,VALID,98.1552,VALID,0,VALID,18.6854,VALID,199,VALID,0.0687934,
2000-07-30, 02:05:00,VALID,916.36,VALID,0,VALID,97.9759,VALID,0,VALID,18.6755,VALID,157,VALID,0,
2000-07-30, 02:06:00,VALID,916.36,VALID,0,VALID,97.8665,VALID,0,VALID,18.6658,VALID,157,VALID,0,
2000-07-30, 02:07:00,VALID,916.322,VALID,0,VALID,97.7393,VALID,0,VALID,18.6729,VALID,157,VALID,0,
2000-07-30, 02:08:00,VALID,916.291,VALID,0,VALID,97.8525,VALID,0,VALID,18.6849,VALID,149,VALID,0.546664,
2000-07-30, 02:09:00,VALID,916.269,VALID,0,VALID,97.9428,VALID,0.0509425,VALID,18.7207,VALID,152,VALID,0.653245,
2000-07-30, 02:10:00,VALID,916.256,VALID,0,VALID,97.8792,VALID,0.0169808,VALID,18.7336,VALID,150,VALID,0.657227,
2000-07-30, 02:11:00,VALID,916.233,VALID,0,VALID,97.7902,VALID,0.0169808,VALID,18.7495,VALID,140,VALID,0.795267,
2000-07-30, 02:12:00,VALID,916.195,VALID,0,VALID,97.8983,VALID,-0.0169808,VALID,18.7924,VALID,150,VALID,0.705529,
2000-07-30, 02:13:00,VALID,916.192,VALID,0,VALID,97.8538,VALID,-0.0509425,VALID,18.8088,VALID,161,VALID,0.575521,
2000-07-30, 02:14:00,VALID,916.164,VALID,0,VALID,97.7966,VALID,-0.0679233,VALID,18.8151,VALID,161,VALID,0.358574,
2000-07-30, 02:15:00,VALID,916.14,VALID,0,VALID,97.7927,VALID,-0.118866,VALID,18.8317,VALID,164,VALID,0,
2000-07-30, 02:16:00,VALID,916.103,VALID,0,VALID,97.7915,VALID,-0.0849042,VALID,18.8578,VALID,182,VALID,0,
2000-07-30, 02:17:00,VALID,916.082,VALID,0,VALID,97.7559,VALID,-0.0509425,VALID,18.864,VALID,202,VALID,0,
2000-07-30, 02:18:00,VALID,916.062,VALID,0,VALID,97.6541,VALID,-0.0849042,VALID,18.8804,VALID,215,VALID,0,
2000-07-30, 02:19:00,VALID,916.047,VALID,0,VALID,97.5359,VALID,-0.0509425,VALID,18.8896,VALID,205,VALID,0,
2000-07-30, 02:20:00,VALID,916.061,VALID,0,VALID,97.2523,VALID,-0.0679233,VALID,18.8928,VALID,184,VALID,0,
2000-07-30, 02:21:00,VALID,916.048,VALID,0,VALID,96.9268,VALID,-0.0849042,VALID,18.8744,VALID,168,VALID,0,
2000-07-30, 02:22:00,VALID,916.06,VALID,0,VALID,96.8734,VALID,-0.101885,VALID,18.8605,VALID,165,VALID,0,
2000-07-30, 02:23:00,VALID,916.052,VALID,0,VALID,97.0158,VALID,-0.101885,VALID,18.8801,VALID,170,VALID,0,
2000-07-30, 02:24:00,VALID,916.061,VALID,0,VALID,97.0883,VALID,-0.0509425,VALID,18.8797,VALID,172,VALID,0,
2000-07-30, 02:25:00,VALID,916.055,VALID,0,VALID,97.1023,VALID,-0.101885,VALID,18.8901,VALID,176,VALID,0,
2000-07-30, 02:26:00,VALID,916.067,VALID,0,VALID,97.1557,VALID,-0.0679233,VALID,18.8898,VALID,187,VALID,0,
2000-07-30, 02:27:00,VALID,916.074,VALID,0,VALID,97.2345,VALID,-0.0339617,VALID,18.8764,VALID,206,VALID,0.197002,
2000-07-30, 02:28:00,VALID,916.073,VALID,0,VALID,97.3197,VALID,-0.0339617,VALID,18.8831,VALID,225,VALID,0.591741,
2000-07-30, 02:29:00,VALID,916.072,VALID,0,VALID,97.349,VALID,-0.0509425,VALID,18.8801,VALID,222,VALID,0.734592,
2000-07-30, 02:30:00,VALID,916.072,VALID,0,VALID,97.3973,VALID,-0.0509425,VALID,18.8667,VALID,242,VALID,0.679888,
2000-07-30, 02:31:00,VALID,916.059,VALID,0,VALID,97.4253,VALID,-0.0509425,VALID,18.86,VALID,230,VALID,0.333882,
2000-07-30, 02:32:00,VALID,916.052,VALID,0,VALID,97.4977,VALID,-0.0509425,VALID,18.8697,VALID,232,VALID,0.00411184,
2000-07-30, 02:33:00,VALID,916.043,VALID,0,VALID,97.5257,VALID,-0.0849042,VALID,18.8893,VALID,257,VALID,0,
2000-07-30, 02:34:00,VALID,916.03,VALID,0,VALID,97.4837,VALID,0,VALID,18.8986,VALID,291,VALID,0.231971,
2000-07-30, 02:35:00,VALID,916.007,VALID,0,VALID,97.3528,VALID,-0.0339617,VALID,18.8988,VALID,328,VALID,0.694169,
2000-07-30, 02:36:00,VALID,915.99,VALID,0,VALID,97.2905,VALID,-0.0339617,VALID,18.8827,VALID,1,VALID,1.03555,
2000-07-30, 02:37:00,VALID,915.981,VALID,0,VALID,97.3197,VALID,-0.0169808,VALID,18.9055,VALID,350,VALID,0.973958,
2000-07-30, 02:38:00,VALID,915.984,VALID,0,VALID,97.3286,VALID,-0.0509425,VALID,18.8568,VALID,343,VALID,0.965495,
2000-07-30, 02:39:00,VALID,915.99,VALID,0,VALID,97.2956,VALID,-0.0169808,VALID,18.8183,VALID,331,VALID,0.663393,
2000-07-30, 02:40:00,VALID,915.979,VALID,0,VALID,97.3693,VALID,-0.0169808,VALID,18.7726,VALID,333,VALID,0.186266,
2000-07-30, 02:41:00,VALID,915.955,VALID,0,VALID,97.5817,VALID,-0.0169808,VALID,18.786,VALID,333,VALID,0,
2000-07-30, 02:42:00,VALID,915.933,VALID,0,VALID,97.7444,VALID,-0.0509425,VALID,18.7664,VALID,18,VALID,0.111779,
2000-07-30, 02:43:00,VALID,915.906,VALID,0,VALID,97.864,VALID,-0.0339617,VALID,18.7761,VALID,75,VALID,0.519336,
2000-07-30, 02:44:00,VALID,915.892,VALID,0,VALID,97.9326,VALID,0,VALID,18.7793,VALID,96,VALID,0.542969,
2000-07-30, 02:45:00,VALID,915.878,VALID,0,VALID,98.0738,VALID,-0.0169808,VALID,18.7922,VALID,111,VALID,0.0234375,
2000-07-30, 02:46:00,VALID,915.878,VALID,0,VALID,98.1552,VALID,-0.0339617,VALID,18.8051,VALID,165,VALID,0,
2000-07-30, 02:47:00,VALID,915.87,VALID,0,VALID,98.2187,VALID,-0.0339617,VALID,18.8176,VALID,184,VALID,0,
2000-07-30, 02:48:00,VALID,915.852,VALID,0,VALID,98.1971,VALID,-0.0169808,VALID,18.8114,VALID,184,VALID,0,
2000-07-30, 02:49:00,VALID,915.846,VALID,0,VALID,98.1412,VALID,0,VALID,18.8017,VALID,278,VALID,0.0390625,
2000-07-30, 02:50:00,VALID,915.861,VALID,0,VALID,98.1043,VALID,-0.0169808,VALID,18.792,VALID,299,VALID,0,
2000-07-30, 02:51:00,VALID,915.869,VALID,0,VALID,98.1984,VALID,-0.0339617,VALID,18.8146,VALID,287,VALID,0,
2000-07-30, 02:52:00,VALID,915.883,VALID,0,VALID,98.1463,VALID,-0.0339617,VALID,18.7823,VALID,282,VALID,0,
2000-07-30, 02:53:00,VALID,915.897,VALID,0,VALID,98.1437,VALID,-0.0509425,VALID,18.7726,VALID,267,VALID,0,
2000-07-30, 02:54:00,VALID,915.911,VALID,0,VALID,98.1984,VALID,-0.0509425,VALID,18.7825,VALID,215,VALID,0,
2000-07-30, 02:55:00,VALID,915.916,VALID,0,VALID,98.1475,VALID,-0.0679233,VALID,18.7825,VALID,183,VALID,0,
2000-07-30, 02:56:00,VALID,915.926,VALID,0,VALID,98.1094,VALID,-0.0339617,VALID,18.7666,VALID,178,VALID,0,
2000-07-30, 02:57:00,VALID,915.915,VALID,0,VALID,98.1234,VALID,0.0339617,VALID,18.7426,VALID,173,VALID,0,
2000-07-30, 02:58:00,VALID,915.895,VALID,0,VALID,98.2124,VALID,0.0679233,VALID,18.7458,VALID,213,VALID,0,
2000-07-30, 02:59:00,VALID,915.872,VALID,0,VALID,98.3154,VALID,0.0679233,VALID,18.7583,VALID,223,VALID,0,
2000-07-30, 03:00:00,VALID,915.832,VALID,0,VALID,98.3713,VALID,0.0339617,VALID,18.762,VALID,239,VALID,0,
2000-07-30, 03:01:00,VALID,915.808,VALID,0,VALID,98.4336,VALID,0.0509425,VALID,18.7647,VALID,243,VALID,0,
2000-07-30, 03:02:00,VALID,915.769,VALID,0,VALID,98.4718,VALID,0.0849042,VALID,18.7878,VALID,219,VALID,0,
2000-07-30, 03:03:00,VALID,915.778,VALID,0,VALID,98.4616,VALID,0.0509425,VALID,18.788,VALID,189,VALID,0,
2000-07-30, 03:04:00,VALID,915.765,VALID,0,VALID,98.4705,VALID,0.0849042,VALID,18.7677,VALID,167,VALID,0.107936,
2000-07-30, 03:05:00,VALID,915.773,VALID,0,VALID,98.4769,VALID,0.0849042,VALID,18.7779,VALID,160,VALID,1.11061,
2000-07-30, 03:06:00,VALID,915.765,VALID,0,VALID,98.4731,VALID,0.0679233,VALID,18.7714,VALID,153,VALID,1.03929,
2000-07-30, 03:07:00,VALID,915.774,VALID,0,VALID,98.4464,VALID,0.0679233,VALID,18.7553,VALID,157,VALID,1.16386,
2000-07-30, 03:08:00,VALID,915.756,VALID,0,VALID,98.4883,VALID,0.101885,VALID,18.7486,VALID,153,VALID,0.881098,
2000-07-30, 03:09:00,VALID,915.747,VALID,0,VALID,98.4553,VALID,0.0339617,VALID,18.7327,VALID,160,VALID,0.716016,
2000-07-30, 03:10:00,VALID,915.731,VALID,0,VALID,98.5125,VALID,0.0679233,VALID,18.7391,VALID,157,VALID,0.574653,
2000-07-30, 03:11:00,VALID,915.73,VALID,0,VALID,98.5659,VALID,0.0679233,VALID,18.7555,VALID,149,VALID,0.455295,
2000-07-30, 03:12:00,VALID,915.733,VALID,0,VALID,98.5532,VALID,0.0339617,VALID,18.7659,VALID,145,VALID,0.72433,
2000-07-30, 03:13:00,VALID,915.737,VALID,0,VALID,98.5036,VALID,-0.0169808,VALID,18.7666,VALID,144,VALID,0.878084,
2000-07-30, 03:14:00,VALID,915.756,VALID,0,VALID,98.4311,VALID,-0.0339617,VALID,18.7599,VALID,149,VALID,0.754223,
2000-07-30, 03:15:00,VALID,915.775,VALID,0,VALID,98.3408,VALID,-0.0509425,VALID,18.7537,VALID,147,VALID,0.951522,
2000-07-30, 03:16:00,VALID,915.789,VALID,0,VALID,98.2836,VALID,-0.0679233,VALID,18.7276,VALID,150,VALID,1.11699,
2000-07-30, 03:17:00,VALID,915.783,VALID,0,VALID,98.3205,VALID,-0.0169808,VALID,18.7343,VALID,141,VALID,0.973805,
2000-07-30, 03:18:00,VALID,915.783,VALID,0,VALID,98.3523,VALID,0,VALID,18.7435,VALID,132,VALID,1.02284,
2000-07-30, 03:19:00,VALID,915.779,VALID,0,VALID,98.3662,VALID,-0.0509425,VALID,18.7733,VALID,111,VALID,0.63121,
2000-07-30, 03:20:00,VALID,915.77,VALID,0,VALID,98.3421,VALID,0,VALID,18.7927,VALID,154,VALID,0.345954,
2000-07-30, 03:21:00,VALID,915.775,VALID,0,VALID,98.2442,VALID,-0.0679233,VALID,18.7791,VALID,190,VALID,0.397204,
2000-07-30, 03:22:00,VALID,915.779,VALID,0,VALID,98.1819,VALID,0,VALID,18.7855,VALID,203,VALID,0.550465,
2000-07-30, 03:23:00,VALID,915.796,VALID,0,VALID,98.159,VALID,-0.0679233,VALID,18.7761,VALID,198,VALID,0.712674,
2000-07-30, 03:24:00,VALID,915.816,VALID,0,VALID,98.1857,VALID,-0.0509425,VALID,18.7825,VALID,196,VALID,0.564303,
2000-07-30, 03:25:00,VALID,915.837,VALID,0,VALID,98.1208,VALID,-0.0339617,VALID,18.7763,VALID,184,VALID,0.992969,
2000-07-30, 03:26:00,VALID,915.843,VALID,0,VALID,98.1424,VALID,-0.0509425,VALID,18.7634,VALID,178,VALID,0.89383,
2000-07-30, 03:27:00,VALID,915.855,VALID,0,VALID,98.2073,VALID,-0.0169808,VALID,18.7631,VALID,204,VALID,0.546675,
2000-07-30, 03:28:00,VALID,915.86,VALID,0,VALID,98.248,VALID,-0.0339617,VALID,18.7567,VALID,192,VALID,0.436198,
2000-07-30, 03:29:00,VALID,915.862,VALID,0,VALID,98.2709,VALID,0,VALID,18.7532,VALID,192,VALID,0.243215,
2000-07-30, 03:30:00,VALID,915.843,VALID,0,VALID,98.262,VALID,-0.0169808,VALID,18.7438,VALID,204,VALID,0.234169,
2000-07-30, 03:31:00,VALID,915.833,VALID,0,VALID,98.2798,VALID,-0.0169808,VALID,18.7438,VALID,213,VALID,0.285156,
2000-07-30, 03:32:00,VALID,915.817,VALID,0,VALID,98.3319,VALID,0,VALID,18.7371,VALID,192,VALID,0,
2000-07-30, 03:33:00,VALID,915.805,VALID,0,VALID,98.3243,VALID,0,VALID,18.7207,VALID,183,VALID,0,
2000-07-30, 03:34:00,VALID,915.802,VALID,0,VALID,98.3993,VALID,0,VALID,18.7306,VALID,167,VALID,0,
2000-07-30, 03:35:00,VALID,915.796,VALID,0,VALID,98.4184,VALID,-0.0169808,VALID,18.7336,VALID,158,VALID,0,
2000-07-30, 03:36:00,VALID,915.798,VALID,0,VALID,98.3408,VALID,0,VALID,18.7398,VALID,159,VALID,0,